Location: Unspecified
(0.0000°N, 0.0000°E)
Time: 08:16:18
(UTC+02:00)

Palapa 6 Rocket - Visible Passes

Search period start: 21 August 2014 00:00
Search period end: 31 August 2014 00:00
Orbit: 486 x 1235 km, 22.7° (Epoch: 20 August)

Date Brightness Start Highest point End Pass type
(mag) Time Alt. Az. Time Alt. Az. Time Alt. Az.
21 Aug 4.4 05:41:47 72° NNE 05:41:50 72° NNE 05:50:00 10° ESE visible
21 Aug 4.9 07:24:04 10° W 07:31:46 48° SSW 07:39:25 10° SE visible
22 Aug 4.7 05:31:21 63° E 05:31:21 63° E 05:38:05 10° ESE visible
22 Aug 5.0 07:13:28 15° W 07:19:51 43° SSW 07:27:24 10° SE visible
23 Aug 5.2 05:20:52 44° ESE 05:20:52 44° ESE 05:26:06 10° ESE visible
23 Aug 5.1 07:02:58 19° WSW 07:07:56 38° SSW 07:15:21 10° SE visible
24 Aug 5.7 05:10:18 30° ESE 05:10:18 30° ESE 05:14:04 10° ESE visible
24 Aug 5.2 06:52:24 23° WSW 06:56:03 34° SSW 07:03:15 10° SE visible
25 Aug 6.2 04:59:39 21° SE 04:59:39 21° SE 05:01:59 10° ESE visible
25 Aug 5.3 06:41:45 25° SW 06:44:11 30° SSW 06:51:06 10° SE visible
26 Aug 6.6 04:48:55 14° SE 04:48:55 14° SE 04:49:52 10° SE visible
26 Aug 5.4 06:31:01 25° SSW 06:32:22 27° SSW 06:38:54 10° SE visible
27 Aug 5.5 06:20:12 23° SSW 06:20:35 24° SSW 06:26:40 10° SE visible
28 Aug 5.8 06:09:20 21° S 06:09:20 21° S 06:14:23 10° SSE visible
29 Aug 6.0 05:58:25 17° S 05:58:25 17° S 06:02:03 10° SSE visible
30 Aug 6.2 05:47:27 14° S 05:47:27 14° S 05:49:39 10° SSE visible
30 Aug 6.3 07:33:49 10° SSW 07:36:28 12° S 07:39:11 10° SSE visible
